"startDT [UTC]","vpos","CH4 [ppm]","stdev(CH4) [ppm]","CO2 [ppm]","stdev(CO2) [ppm]","H2O_reported [%]","stdev(H2O_reported)","CavityPressure [torr]","CavityTemp [C]","OutletValve","CH4_dry [ppm]","CO2_dry [ppm]","DasTemp [C]","EtalonTemp [C]","WarmBoxTemp [C]","MPVPosition","T_ECpre [C]","T_EC1 [C]","T_EC2 [C]","p_inlet [hPa]","p_in [hPa]","p_out [hPa]","T_inlet [C]","RH_inlet [%]","dwpt_inlet [C]","T_vent [C]","RH_vent [%]","dwpt_vent [C]","flow_vent [l min-1]","flow_inlet [l min-1]","dwpt_sample [C]","T_room [C]"
2015-09-09 00:00:00,0.0,2.00798,0.00202,397.556,0.113,1.0030,0.0065,139.997,45.000,31774.74551,2.02862,402.517,35.534,45.067,45.000,0.00,0.10,-272.74,-272.79,-15,526,-946,25.7,23.6,3.3,25.5,24.3,3.6,5.73,1.92,3.7,29.4
2015-09-09 00:01:00,0.0,2.00017,0.00526,396.977,0.362,0.9884,0.0077,140.001,45.000,31774.13996,2.02040,401.855,35.510,45.067,45.000,0.00,0.10,-272.74,-272.81,-15,526,-946,25.7,23.3,3.2,25.5,24.0,3.4,5.73,1.87,3.7,29.5
2015-09-09 00:02:00,0.0,1.99317,0.00308,396.408,0.198,0.9856,0.0078,140.001,45.000,31773.81031,2.01332,401.266,35.517,45.067,45.000,0.00,0.10,-272.73,-272.79,-15,526,-946,25.7,23.1,3.1,25.5,23.8,3.3,5.73,1.83,3.8,29.4
2015-09-09 00:03:00,0.0,1.97999,0.00623,395.636,0.373,0.9625,0.0155,140.003,45.000,31775.13110,2.00001,400.382,35.541,45.067,45.000,0.00,0.10,-272.74,-272.79,-15,526,-946,25.7,22.5,2.7,25.5,23.4,3.1,5.73,1.83,3.8,29.4
2015-09-09 00:04:00,0.0,1.97298,0.00296,395.169,0.182,0.9488,0.0068,139.998,45.000,31774.01556,1.99196,399.818,35.551,45.067,45.000,0.00,0.34,-270.62,-270.94,-15,526,-946,25.7,22.3,2.6,25.5,22.9,2.8,5.42,2.00,-3.0,29.5
2015-09-09 00:05:00,0.0,1.97168,0.00104,395.029,0.104,0.9564,0.0060,140.002,45.000,31774.86491,1.99086,399.715,35.549,45.067,45.000,0.00,0.10,-272.74,-272.80,-15,526,-946,25.7,22.5,2.7,25.5,23.0,2.9,5.73,1.91,3.8,29.4
2015-09-09 00:06:00,0.0,1.97812,0.00382,395.315,0.235,0.9806,0.0125,140.000,45.000,31772.95605,1.99762,400.118,35.551,45.067,45.000,0.00,0.10,-272.72,-272.80,-15,526,-946,25.7,23.1,3.0,25.5,23.6,3.2,5.73,1.95,3.8,29.4
2015-09-09 00:07:00,0.0,1.97948,0.00076,395.418,0.054,0.9772,0.0074,140.001,45.000,31774.05209,1.99904,400.211,35.520,45.067,45.000,0.00,0.10,-272.74,-272.79,-15,526,-946,25.7,23.0,3.0,25.5,23.6,3.2,5.73,1.98,3.8,29.4
2015-09-09 00:08:00,0.0,1.98162,0.00229,395.525,0.092,0.9826,0.0096,139.998,45.000,31774.35052,2.00144,400.352,35.502,45.067,45.000,0.00,0.10,-272.73,-272.81,-15,526,-946,25.7,23.1,3.1,25.5,23.8,3.3,5.73,1.99,3.8,29.3
2015-09-09 00:09:00,0.0,1.98156,0.00137,395.601,0.074,0.9705,0.0058,139.996,45.000,31773.30644,2.00092,400.359,35.500,45.068,45.000,0.00,0.10,-272.72,-272.79,-15,526,-946,25.7,22.9,2.9,25.5,23.5,3.2,5.73,1.97,3.8,29.4
2015-09-09 00:10:00,0.0,1.98510,0.00069,395.507,0.098,1.0208,0.0189,139.999,45.000,31774.60868,2.00561,400.523,35.500,45.068,45.000,0.00,0.10,-272.73,-272.80,-15,526,-946,25.7,24.2,3.7,25.5,24.3,3.6,5.73,1.92,3.7,29.5
2015-09-09 00:11:00,0.0,1.98493,0.00048,395.439,0.092,1.0296,0.0145,140.000,45.000,31774.43700,2.00580,400.502,35.500,45.068,45.000,0.00,0.10,-272.72,-272.81,-15,526,-946,25.7,24.2,3.7,25.5,24.9,4.0,5.73,1.87,3.8,29.4
2015-09-09 00:12:00,0.0,1.98117,0.00248,395.411,0.133,1.0017,0.0089,139.999,45.000,31775.55431,2.00158,400.340,35.501,45.068,45.000,0.00,0.10,-272.75,-272.79,-15,526,-946,25.7,23.5,3.3,25.5,24.3,3.7,5.73,1.84,3.8,29.4
2015-09-09 00:13:00,0.0,1.97303,0.00280,394.962,0.186,0.9689,0.0069,139.998,45.000,31772.46328,1.99262,399.716,35.500,45.068,45.000,0.00,0.10,-272.75,-272.81,-15,526,-946,25.7,22.8,2.9,25.5,23.6,3.2,5.73,1.83,3.8,29.5
2015-09-09 00:14:00,0.0,1.97354,0.00178,394.882,0.066,0.9892,0.0096,140.000,45.000,31771.53575,1.99326,399.727,35.508,45.068,45.000,0.00,0.10,-272.75,-272.79,-15,526,-946,25.7,23.3,3.2,25.5,23.7,3.3,5.73,1.85,3.7,29.5
2015-09-09 00:15:00,0.0,1.97541,0.00132,394.854,0.075,1.0061,0.0092,139.999,45.000,31772.55865,1.99567,399.791,35.508,45.068,45.000,0.00,0.10,-272.74,-272.81,-15,526,-946,25.7,23.7,3.4,25.5,24.2,3.6,5.73,1.90,3.8,29.5
2015-09-09 00:16:00,0.0,1.97354,0.00187,394.719,0.099,1.0071,0.0095,140.000,45.000,31773.77783,1.99363,399.653,35.500,45.068,45.000,0.00,0.10,-272.72,-272.80,-15,526,-946,25.7,23.7,3.4,25.5,24.3,3.6,5.73,1.95,3.8,29.5
2015-09-09 00:17:00,0.0,1.97412,0.00205,394.786,0.083,0.9970,0.0134,140.001,45.000,31773.17693,1.99424,399.681,35.501,45.068,45.000,0.00,0.10,-272.74,-272.80,-15,526,-946,25.7,23.4,3.2,25.5,24.2,3.6,5.73,1.99,3.8,29.5
2015-09-09 00:18:00,0.0,1.97217,0.00055,394.660,0.066,0.9856,0.0097,140.000,45.000,31774.92051,1.99194,399.488,35.500,45.068,45.000,0.00,0.10,-272.75,-272.79,-15,526,-946,25.7,23.2,3.1,25.5,23.8,3.3,5.73,1.99,3.8,29.5
2015-09-09 00:19:00,0.0,1.97105,0.00112,394.525,0.093,0.9978,0.0162,140.001,45.000,31774.82898,1.99110,399.417,35.500,45.068,45.000,0.00,0.10,-272.73,-272.79,-15,526,-946,25.7,23.4,3.2,25.5,24.1,3.5,5.73,1.97,3.8,29.5
2015-09-09 00:20:00,0.0,1.96884,0.00096,394.571,0.085,0.9709,0.0081,140.001,45.000,31775.28562,1.98835,399.327,35.499,45.068,45.000,0.00,0.10,-272.73,-272.79,-15,526,-946,25.7,22.8,2.9,25.5,23.5,3.2,5.73,1.92,3.8,29.4
2015-09-09 00:21:00,0.0,1.96737,0.00051,394.419,0.109,0.9772,0.0181,140.000,45.000,31774.41719,1.98690,399.201,35.499,45.068,45.000,0.00,0.10,-272.74,-272.80,-15,526,-946,25.7,23.1,3.1,25.5,23.5,3.2,5.73,1.87,3.8,29.5
2015-09-09 00:22:00,0.0,1.96574,0.00071,394.229,0.048,1.0063,0.0027,139.999,45.000,31775.51102,1.98585,399.159,35.499,45.067,45.000,0.00,0.10,-272.73,-272.79,-15,526,-946,25.7,23.6,3.4,25.5,24.2,3.6,5.73,1.83,3.8,29.5
2015-09-09 00:23:00,0.0,1.96512,0.00045,394.237,0.040,0.9833,0.0066,140.004,45.000,31777.28040,1.98480,399.051,35.488,45.068,45.000,0.00,0.10,-272.71,-272.78,-15,526,-946,25.7,23.1,3.1,25.5,23.9,3.4,5.73,1.83,3.8,29.5
2015-09-09 00:24:00,0.0,1.96424,0.00089,394.146,0.080,0.9906,0.0081,140.003,45.000,31777.68615,1.98409,398.995,35.487,45.067,45.000,0.00,0.10,-272.73,-272.79,-15,526,-946,25.7,23.3,3.2,25.5,23.9,3.4,5.73,1.86,3.8,29.4
2015-09-09 00:25:00,0.0,1.96361,0.00082,393.985,0.043,1.0013,0.0034,140.000,45.000,31777.77093,1.98352,398.884,35.454,45.068,45.000,0.00,0.10,-272.73,-272.80,-15,526,-946,25.7,23.5,3.3,25.5,24.1,3.5,5.73,1.92,3.8,29.5
2015-09-09 00:26:00,0.0,1.96074,0.00136,393.994,0.054,0.9707,0.0169,139.999,45.000,31777.64219,1.98022,398.745,35.445,45.068,45.000,0.00,0.10,-272.75,-272.78,-15,526,-946,25.7,22.7,2.8,25.5,23.7,3.3,5.73,1.97,3.8,29.5
2015-09-09 00:27:00,0.0,1.96118,0.00078,394.072,0.029,0.9540,0.0076,139.997,45.000,31776.37832,1.98008,398.731,35.443,45.068,45.000,0.00,0.10,-272.73,-272.80,-15,526,-946,25.7,22.4,2.7,25.5,23.0,2.9,5.73,2.00,3.8,29.5
2015-09-09 00:28:00,0.0,1.96170,0.00069,393.990,0.067,0.9776,0.0101,139.999,45.000,31776.93774,1.98121,398.769,35.480,45.068,45.000,0.00,0.10,-272.74,-272.80,-15,526,-946,25.7,23.0,3.0,25.5,23.4,3.1,5.73,1.99,3.8,29.5
2015-09-09 00:29:00,0.0,1.96058,0.00041,393.964,0.055,0.9658,0.0103,140.002,45.000,31777.80193,1.97981,398.687,35.498,45.068,45.000,0.00,0.10,-272.74,-272.79,-15,526,-946,25.7,22.7,2.9,25.5,23.5,3.1,5.73,1.94,3.8,29.5
2015-09-09 00:30:00,0.0,1.96101,0.00142,393.879,0.109,0.9893,0.0124,139.998,45.000,31776.24157,1.98065,398.712,35.500,45.068,45.000,0.00,0.10,-272.73,-272.80,-15,526,-946,25.7,23.2,3.1,25.5,23.7,3.3,5.73,1.89,3.8,29.5
2015-09-09 00:31:00,0.0,1.96017,0.00128,393.987,0.077,0.9598,0.0068,140.004,45.000,31779.78829,1.97930,398.682,35.501,45.067,45.000,0.00,0.10,-272.74,-272.80,-15,526,-946,25.7,22.5,2.7,25.5,23.3,3.1,5.73,1.83,3.8,29.5
2015-09-09 00:32:00,0.0,1.96259,0.00106,393.998,0.081,0.9835,0.0128,140.002,45.000,31777.92130,1.98210,398.803,35.505,45.067,45.000,0.00,0.10,-272.74,-272.80,-15,526,-946,25.7,23.1,3.1,25.5,23.6,3.2,5.73,1.82,3.8,29.5
2015-09-09 00:33:00,0.0,1.96466,0.00125,394.070,0.086,0.9812,0.0103,140.001,45.000,31777.07350,1.98413,398.867,35.502,45.067,45.000,0.00,0.10,-272.73,-272.79,-15,526,-946,25.7,23.1,3.1,25.5,23.7,3.3,5.73,1.85,3.8,29.4
2015-09-09 00:34:00,0.0,1.97042,0.00319,394.107,0.107,1.0321,0.0250,140.002,45.000,31776.94567,1.99095,399.159,35.499,45.067,45.000,0.00,0.10,-272.74,-272.80,-15,526,-946,25.7,24.4,3.9,25.5,24.5,3.7,5.73,1.91,3.8,29.5
2015-09-09 00:35:00,0.0,1.96791,0.00244,393.951,0.084,1.0420,0.0116,139.998,45.000,31774.59879,1.98912,399.068,35.491,45.067,45.000,0.00,0.10,-272.74,-272.80,-15,526,-946,25.7,24.4,3.8,25.5,25.2,4.2,5.73,1.96,3.8,29.4
2015-09-09 00:36:00,0.0,1.96119,0.00168,393.800,0.092,0.9796,0.0071,140.000,45.000,31774.73857,1.98070,398.590,35.496,45.067,45.000,0.00,0.10,-272.74,-272.79,-15,526,-946,25.7,23.0,3.0,25.5,24.0,3.4,5.73,2.00,3.8,29.4
2015-09-09 00:37:00,0.0,1.96166,0.00257,393.806,0.078,0.9768,0.0126,139.999,45.000,31775.20918,1.98115,398.580,35.499,45.068,45.000,0.00,0.10,-272.73,-272.80,-15,526,-946,25.7,22.9,2.9,25.5,23.6,3.3,5.73,2.00,3.8,29.5
2015-09-09 00:38:00,0.0,1.96397,0.00108,393.913,0.043,0.9806,0.0090,140.002,45.000,31774.32080,1.98339,398.702,35.500,45.068,45.000,0.00,0.10,-272.73,-272.80,-15,526,-946,25.7,23.1,3.1,25.5,23.6,3.2,5.73,1.95,3.8,29.5
2015-09-09 00:39:00,0.0,1.96623,0.00047,393.878,0.085,0.9948,0.0101,139.999,45.000,31773.36079,1.98603,398.746,35.500,45.068,45.000,0.00,0.10,-272.73,-272.81,-15,526,-946,25.7,23.4,3.3,25.5,23.9,3.4,5.73,1.88,3.8,29.4
2015-09-09 00:40:00,0.0,1.96014,0.00456,393.658,0.057,0.9780,0.0279,140.001,45.000,31774.60566,1.97997,398.444,35.501,45.067,45.000,0.00,0.10,-272.73,-272.80,-15,526,-946,25.7,22.8,2.9,25.5,23.8,3.3,5.73,1.84,3.8,29.5
2015-09-09 00:41:00,0.0,1.95682,0.00183,393.656,0.054,0.9559,0.0099,140.003,45.000,31774.37915,1.97583,398.324,35.501,45.067,45.000,0.00,0.10,-272.73,-272.80,-15,526,-946,25.7,22.4,2.6,25.5,23.1,3.0,5.73,1.83,3.8,29.5
2015-09-09 00:42:00,0.0,1.95583,0.00082,393.582,0.068,0.9426,0.0062,140.001,45.000,31772.82638,1.97450,398.181,35.500,45.067,45.000,0.00,0.10,-272.74,-272.80,-15,526,-946,25.7,22.2,2.5,25.5,22.8,2.7,5.73,1.84,3.8,29.5
2015-09-09 00:43:00,0.0,1.95984,0.00224,393.491,0.083,0.9865,0.0146,139.998,45.000,31773.69203,1.97924,398.302,35.499,45.067,45.000,0.00,0.10,-272.74,-272.79,-15,526,-946,25.7,23.3,3.2,25.5,23.5,3.2,5.73,1.90,3.8,29.5
2015-09-09 00:44:00,0.0,1.96013,0.00184,393.503,0.050,0.9915,0.0176,139.999,45.000,31773.65570,1.98006,398.353,35.500,45.067,45.000,0.00,0.10,-272.74,-272.80,-15,526,-946,25.7,23.2,3.1,25.5,24.0,3.5,5.73,1.97,3.8,29.5
2015-09-09 00:45:00,0.0,1.96228,0.00247,393.640,0.102,0.9749,0.0075,140.003,45.000,31774.98128,1.98161,398.401,35.500,45.067,45.000,0.00,0.10,-272.74,-272.80,-15,526,-946,25.7,22.9,3.0,25.5,23.6,3.2,5.73,2.00,3.8,29.4
2015-09-09 00:46:00,0.0,1.96693,0.00179,393.707,0.082,0.9877,0.0087,140.000,45.000,31774.32994,1.98640,398.531,35.501,45.068,45.000,0.00,0.10,-272.73,-272.79,-15,526,-946,25.7,23.3,3.2,25.5,23.7,3.3,5.73,1.99,3.8,29.5
2015-09-09 00:47:00,0.0,1.96452,0.00257,393.559,0.043,0.9977,0.0078,140.000,45.000,31772.39939,1.98457,398.436,35.504,45.068,45.000,0.00,0.10,-272.73,-272.80,-15,526,-946,25.7,23.4,3.3,25.5,24.0,3.5,5.73,1.94,3.8,29.5
2015-09-09 00:48:00,0.0,1.96477,0.00272,393.540,0.053,1.0048,0.0098,139.996,45.000,31773.45831,1.98489,398.452,35.531,45.068,45.000,0.00,0.10,-272.74,-272.80,-15,526,-946,25.7,23.6,3.4,25.5,24.2,3.6,5.73,1.89,3.8,29.5
2015-09-09 00:49:00,0.0,1.95998,0.00330,393.461,0.081,0.9829,0.0114,140.001,45.000,31773.29793,1.97938,398.260,35.550,45.068,45.000,0.00,0.10,-272.73,-272.79,-15,526,-946,25.7,23.1,3.1,25.5,23.8,3.4,5.73,1.84,3.8,29.5
2015-09-09 00:50:00,0.0,1.96921,0.00184,393.636,0.046,1.0167,0.0066,139.998,45.000,31772.14718,1.98964,398.610,35.526,45.067,45.000,0.00,0.10,-272.73,-272.79,-15,526,-946,25.7,23.9,3.5,25.5,24.3,3.6,5.73,1.82,3.8,29.4
2015-09-09 00:51:00,0.0,1.96570,0.00174,393.577,0.056,1.0065,0.0070,139.999,45.000,31772.00624,1.98574,398.497,35.502,45.067,44.999,0.00,0.10,-272.74,-272.80,-15,526,-946,25.7,23.7,3.4,25.5,24.3,3.6,5.73,1.85,3.9,29.4
2015-09-09 00:52:00,0.0,1.96852,0.00107,393.549,0.059,1.0248,0.0103,139.999,45.000,31772.30195,1.98883,398.559,35.480,45.067,45.000,0.00,0.10,-272.74,-272.80,-15,526,-946,25.7,24.2,3.8,25.5,24.6,3.8,5.73,1.90,3.8,29.4
2015-09-09 00:53:00,0.0,2.00008,0.00965,395.973,0.755,1.0847,0.0194,140.001,45.000,31771.64561,2.02171,401.296,35.429,45.067,44.999,0.00,0.10,-272.72,-272.80,-15,526,-946,25.7,25.6,4.5,25.5,26.0,4.6,5.73,1.95,3.9,29.4
2015-09-09 00:54:00,0.0,1.99068,0.00381,395.376,0.238,1.0499,0.0076,140.001,45.000,31770.92407,2.01156,400.528,35.376,45.067,44.999,0.00,0.10,-272.73,-272.81,-15,526,-946,25.7,24.8,4.0,25.5,25.5,4.3,5.73,1.98,3.8,29.4
2015-09-09 00:55:00,0.0,1.98975,0.00949,395.436,0.644,1.0483,0.0135,140.001,44.999,31771.60037,2.01087,400.585,35.326,45.067,45.000,0.00,0.10,-272.73,-272.80,-15,526,-946,25.7,24.7,4.0,25.5,25.3,4.2,5.73,1.99,3.8,29.4
2015-09-09 00:56:00,0.0,1.99777,0.00526,396.036,0.389,1.0538,0.0060,140.001,44.999,31772.24089,2.01956,401.244,35.286,45.067,45.000,0.00,0.09,-272.75,-272.79,-15,526,-945,25.6,24.8,4.0,25.5,25.5,4.3,5.73,1.97,3.8,29.4
2015-09-09 00:57:00,0.0,1.98434,0.00720,394.804,0.516,1.0438,0.0118,140.004,44.999,31771.75512,2.00522,399.923,35.251,45.067,45.000,0.00,0.10,-272.74,-272.79,-15,526,-945,25.6,24.7,3.9,25.5,25.3,4.1,5.73,1.93,3.8,29.4
2015-09-09 00:58:00,0.0,1.98969,0.00435,395.146,0.314,1.0535,0.0118,140.003,44.999,31770.54034,2.01136,400.340,35.205,45.067,45.000,0.00,0.10,-272.74,-272.80,-15,526,-945,25.6,24.8,4.0,25.5,25.5,4.3,5.73,1.89,3.8,29.3
2015-09-09 00:59:00,0.0,1.98962,0.00833,395.184,0.598,1.0544,0.0143,139.997,44.999,31767.14982,2.01131,400.380,35.151,45.067,45.000,0.00,0.10,-272.73,-272.80,-15,526,-945,25.6,25.0,4.1,25.5,25.5,4.2,5.73,1.86,3.8,29.3
2015-09-09 01:00:00,0.0,1.99432,0.00611,395.398,0.389,1.0725,0.0169,140.002,44.999,31765.15695,2.01539,400.651,35.106,45.067,45.000,0.00,0.10,-272.73,-272.80,-15,526,-945,25.6,25.5,4.4,25.4,26.0,4.5,5.73,1.84,3.8,29.3
2015-09-09 01:01:00,0.0,2.00766,0.00607,396.277,0.363,1.1063,0.0250,140.003,44.999,31764.00119,2.03021,401.736,35.068,45.067,45.000,0.00,0.10,-272.74,-272.80,-15,525,-945,25.6,26.4,4.8,25.4,26.6,4.8,5.73,1.84,3.8,29.3
2015-09-09 01:02:00,0.0,1.99289,0.02076,395.257,1.392,1.0999,0.0351,140.001,44.999,31762.43642,2.01647,400.724,35.019,45.067,45.000,0.00,0.10,-272.74,-272.80,-15,525,-945,25.5,26.1,4.7,25.4,27.1,5.1,5.73,1.86,3.8,29.3
2015-09-09 01:03:00,0.0,1.98731,0.01613,394.927,1.288,1.1022,0.0351,140.001,44.999,31756.67060,2.00963,400.353,34.974,45.067,45.000,0.00,0.10,-272.73,-272.79,-15,525,-945,25.5,26.2,4.7,25.4,26.8,4.9,5.73,1.89,3.8,29.3
2015-09-09 01:04:00,0.0,1.97549,0.00402,394.185,0.340,1.0386,0.0057,140.001,44.999,31757.76966,1.99596,399.261,34.935,45.067,45.000,0.00,0.10,-272.74,-272.80,-15,525,-945,25.5,24.7,3.8,25.4,25.6,4.2,5.73,1.93,3.8,29.3
2015-09-09 01:05:00,0.0,1.97265,0.00525,394.049,0.255,1.0535,0.0077,139.998,44.999,31754.24848,1.99429,399.227,34.876,45.067,45.000,0.00,0.10,-272.74,-272.82,-15,525,-945,25.5,25.0,4.0,25.3,25.6,4.2,5.73,1.95,3.8,29.2
2015-09-09 01:06:00,0.0,1.95554,0.00426,393.296,0.184,1.0181,0.0128,140.003,44.999,31753.75467,1.97603,398.280,34.827,45.067,45.000,0.00,0.10,-272.73,-272.80,-15,525,-945,25.5,24.2,3.5,25.3,25.0,3.9,5.73,1.96,3.8,29.1
2015-09-09 01:07:00,0.0,1.95888,0.00150,393.539,0.099,1.0241,0.0082,139.999,44.999,31749.97258,1.97912,398.544,34.799,45.067,45.000,0.00,0.10,-272.73,-272.80,-15,525,-944,25.4,24.5,3.6,25.3,24.9,3.8,5.73,1.97,3.8,29.1
2015-09-09 01:08:00,0.0,1.96053,0.00213,393.554,0.142,1.0421,0.0060,140.001,44.999,31749.64574,1.98133,398.656,34.747,45.067,45.000,0.00,0.10,-272.74,-272.81,-15,525,-944,25.4,24.9,3.9,25.3,25.3,4.0,5.73,1.97,3.8,29.1
2015-09-09 01:09:00,0.0,1.96187,0.00204,393.418,0.039,1.0572,0.0099,140.001,44.999,31747.08474,1.98305,398.595,34.742,45.068,45.000,0.00,0.10,-272.74,-272.80,-15,525,-944,25.4,25.2,4.1,25.3,25.8,4.2,5.73,1.95,3.7,29.1
2015-09-09 01:10:00,0.0,1.95857,0.00214,393.313,0.061,1.0408,0.0086,140.002,45.000,31746.11997,1.97922,398.404,34.738,45.068,45.000,0.00,0.10,-272.73,-272.80,-15,525,-944,25.4,25.0,3.9,25.3,25.5,4.1,5.73,1.92,3.7,29.1
2015-09-09 01:11:00,0.0,1.95866,0.00189,393.266,0.053,1.0502,0.0143,140.000,44.999,31746.13065,1.97964,398.404,34.711,45.067,45.000,0.00,0.10,-272.74,-272.80,-15,525,-944,25.4,25.1,4.0,25.2,25.6,4.2,5.73,1.89,3.7,29.1
2015-09-09 01:12:00,0.0,1.95827,0.00131,393.237,0.064,1.0542,0.0142,139.998,45.000,31745.67680,1.97941,398.399,34.689,45.067,45.000,0.00,0.10,-272.74,-272.81,-15,525,-944,25.4,25.2,4.0,25.2,25.9,4.3,5.73,1.86,3.7,29.1
2015-09-09 01:13:00,0.0,1.95421,0.00209,393.105,0.048,1.0368,0.0087,139.998,45.000,31743.37675,1.97496,398.178,34.688,45.067,45.000,0.00,0.10,-272.73,-272.80,-15,525,-944,25.4,24.8,3.8,25.2,25.5,4.1,5.73,1.85,3.7,29.1
2015-09-09 01:14:00,0.0,1.95135,0.00264,392.929,0.074,1.0353,0.0145,139.999,45.000,31743.08128,1.97205,397.991,34.688,45.067,45.000,0.00,0.10,-272.74,-272.80,-15,525,-944,25.4,24.8,3.8,25.2,25.4,4.0,5.73,1.85,3.7,29.0
2015-09-09 01:15:00,0.0,1.94734,0.00163,392.919,0.078,1.0114,0.0061,139.999,45.000,31741.10887,1.96756,397.861,34.688,45.067,45.000,0.00,0.10,-272.74,-272.80,-15,525,-944,25.4,24.2,3.4,25.2,24.9,3.7,5.73,1.86,3.7,29.0
2015-09-09 01:16:00,0.0,1.94425,0.00091,392.774,0.042,1.0123,0.0079,140.004,45.000,31740.82713,1.96414,397.713,34.687,45.067,45.000,0.00,0.10,-272.74,-272.79,-15,525,-944,25.3,24.3,3.5,25.2,24.8,3.6,5.73,1.89,3.7,29.0
2015-09-09 01:17:00,0.0,1.95680,0.01379,393.231,0.798,1.0696,0.0304,140.000,45.000,31738.13065,1.97693,398.421,34.680,45.067,45.000,0.00,0.10,-272.73,-272.79,-15,525,-944,25.3,25.9,4.4,25.2,25.8,4.2,5.73,1.93,3.7,29.0
2015-09-09 01:18:00,0.0,1.95639,0.02313,393.676,1.314,1.0386,0.0521,140.000,45.000,31736.18807,1.97579,398.709,34.663,45.068,45.000,0.00,0.10,-272.74,-272.80,-15,525,-944,25.3,25.1,3.9,25.2,25.9,4.2,5.73,1.96,3.7,28.9
2015-09-09 01:19:00,0.0,1.97981,0.01155,395.292,0.789,1.0965,0.0282,140.002,45.000,31735.63433,2.00371,400.754,34.647,45.068,45.000,0.00,0.10,-272.74,-272.81,-15,525,-944,25.3,26.1,4.5,25.2,26.8,4.7,5.73,1.98,3.7,29.0
2015-09-09 01:20:00,0.0,1.95734,0.00554,393.835,0.330,1.0282,0.0140,139.998,45.000,31736.39599,1.97837,398.900,34.654,45.068,45.000,0.00,0.10,-272.73,-272.79,-15,525,-944,25.3,24.6,3.6,25.2,25.7,4.1,5.73,1.98,3.7,29.0
2015-09-09 01:21:00,0.0,1.97483,0.02144,394.901,1.457,1.0498,0.0399,140.000,45.000,31735.58204,1.99568,400.049,34.634,45.068,45.000,0.00,0.10,-272.73,-272.80,-15,525,-944,25.3,25.3,4.0,25.2,25.7,4.1,5.73,1.97,3.7,28.9
2015-09-09 01:22:00,0.0,1.95258,0.00177,393.371,0.112,1.0001,0.0065,140.001,45.000,31733.95277,1.97259,398.266,34.632,45.068,45.000,0.00,0.10,-272.74,-272.81,-15,525,-944,25.3,24.0,3.3,25.1,25.0,3.7,5.73,1.95,3.7,29.0
2015-09-09 01:23:00,0.0,1.95378,0.00226,393.435,0.136,0.9966,0.0042,140.000,45.000,31736.26815,1.97363,398.307,34.627,45.068,45.000,0.00,0.10,-272.74,-272.80,-15,525,-944,25.3,23.9,3.2,25.1,24.6,3.5,5.73,1.92,3.7,29.0
2015-09-09 01:24:00,0.0,1.95537,0.00298,393.517,0.126,0.9980,0.0062,139.999,45.000,31735.70429,1.97488,398.385,34.626,45.068,45.000,0.00,0.10,-272.73,-272.80,-15,525,-944,25.3,24.0,3.3,25.1,24.6,3.4,5.73,1.89,3.7,28.8
2015-09-09 01:25:00,0.0,1.95550,0.00391,393.567,0.159,1.0007,0.0083,140.000,45.000,31734.07593,1.97586,398.471,34.625,45.068,45.000,0.00,0.10,-272.74,-272.81,-15,525,-944,25.3,24.0,3.2,25.1,24.7,3.5,5.73,1.87,3.7,28.9
2015-09-09 01:26:00,0.0,1.94717,0.00149,393.296,0.072,0.9762,0.0030,140.001,45.000,31732.74803,1.96640,398.058,34.624,45.067,44.999,0.00,0.10,-272.74,-272.80,-15,524,-944,25.3,23.5,2.9,25.1,24.2,3.2,5.73,1.86,3.8,28.8
2015-09-09 01:27:00,0.0,1.94955,0.00503,393.411,0.212,0.9848,0.0139,139.998,45.000,31732.22127,1.96914,398.223,34.597,45.067,44.999,0.00,0.10,-272.73,-272.79,-15,524,-944,25.2,23.7,3.0,25.1,24.3,3.3,5.73,1.86,3.8,28.9
2015-09-09 01:28:00,0.0,1.95240,0.00460,393.527,0.174,0.9937,0.0152,140.000,45.000,31731.49151,1.97200,398.377,34.568,45.067,45.000,0.00,0.10,-272.74,-272.80,-15,524,-944,25.2,24.0,3.2,25.1,24.4,3.3,5.73,1.88,3.8,28.8
2015-09-09 01:29:00,0.0,1.94690,0.00301,393.310,0.121,0.9815,0.0065,140.002,44.999,31730.82495,1.96631,398.105,34.564,45.068,45.000,0.00,0.10,-272.74,-272.80,-15,524,-944,25.2,23.7,3.0,25.1,24.4,3.3,5.73,1.89,3.8,28.9
2015-09-09 01:30:00,0.0,1.95145,0.00146,393.449,0.059,0.9955,0.0102,139.999,44.999,31728.38776,1.97127,398.311,34.556,45.068,45.000,0.00,0.10,-272.74,-272.80,-15,524,-944,25.2,24.1,3.2,25.1,24.5,3.4,5.73,1.93,3.7,28.9
2015-09-09 01:31:00,0.0,1.94745,0.00154,393.424,0.082,0.9877,0.0055,140.001,45.000,31727.61312,1.96691,398.247,34.513,45.068,45.000,0.00,0.10,-272.74,-272.80,-15,524,-944,25.2,23.8,3.1,25.0,24.5,3.4,5.73,1.96,3.7,28.8
2015-09-09 01:32:00,0.0,1.95201,0.00078,393.581,0.062,0.9974,0.0041,140.001,45.000,31726.08129,1.97172,398.454,34.527,45.068,45.000,0.00,0.10,-272.74,-272.81,-15,524,-944,25.2,24.1,3.3,25.0,24.6,3.4,5.73,1.97,3.7,28.8
2015-09-09 01:33:00,0.0,1.95418,0.00081,393.678,0.037,1.0047,0.0045,140.000,45.000,31724.20989,1.97406,398.588,34.504,45.068,45.000,0.00,0.10,-272.74,-272.80,-14,524,-944,25.2,24.4,3.4,25.0,24.9,3.5,5.73,1.98,3.7,28.8
2015-09-09 01:34:00,0.0,1.95686,0.00459,393.747,0.194,1.0265,0.0213,140.001,45.000,31722.88956,1.97739,398.775,34.501,45.068,45.000,0.00,0.10,-272.73,-272.81,-15,524,-944,25.2,24.8,3.6,25.0,25.5,3.8,5.73,1.97,3.7,28.8
2015-09-09 01:35:00,0.0,1.95901,0.00319,393.957,0.176,1.0141,0.0104,140.000,45.000,31720.13350,1.97890,398.911,34.500,45.068,45.000,0.00,0.10,-272.74,-272.81,-14,524,-944,25.2,24.6,3.5,25.0,25.1,3.7,5.73,1.96,3.6,28.8
2015-09-09 01:36:00,0.0,1.97154,0.00313,394.633,0.152,1.0421,0.0211,140.002,45.000,31720.50373,1.99191,399.729,34.496,45.068,45.000,0.00,0.10,-272.74,-272.80,-14,524,-944,25.2,25.4,4.0,25.0,25.7,4.0,5.73,1.93,3.6,28.8
2015-09-09 01:37:00,0.0,1.97568,0.00144,394.935,0.129,1.0572,0.0110,140.000,45.000,31718.21211,1.99702,400.132,34.483,45.068,45.000,0.00,0.10,-272.73,-272.80,-14,524,-944,25.1,25.6,4.1,25.0,26.4,4.4,5.73,1.90,3.6,28.8
2015-09-09 01:38:00,0.0,1.98306,0.00362,395.482,0.208,1.0489,0.0096,140.000,45.000,31717.52279,2.00387,400.629,34.493,45.068,45.000,0.00,0.10,-272.74,-272.80,-14,524,-944,25.2,25.5,4.0,25.0,26.1,4.2,5.73,1.87,3.6,28.8
2015-09-09 01:39:00,0.0,1.98735,0.00159,395.796,0.084,1.0614,0.0131,140.001,45.000,31716.14192,2.00865,401.017,34.477,45.068,45.000,0.00,0.10,-272.74,-272.80,-14,524,-944,25.2,25.9,4.2,25.0,26.4,4.3,5.73,1.85,3.6,28.8
2015-09-09 01:40:00,0.0,1.98588,0.00159,395.945,0.038,1.0465,0.0092,140.000,45.000,31714.14497,2.00724,401.104,34.480,45.068,45.000,0.00,0.10,-272.73,-272.80,-14,524,-944,25.1,25.4,3.9,25.0,26.3,4.3,5.73,1.85,3.6,28.8
2015-09-09 01:41:00,0.0,1.98404,0.00267,395.954,0.099,1.0413,0.0088,140.000,45.000,31713.17492,2.00518,401.084,34.461,45.068,45.000,0.00,0.10,-272.74,-272.80,-14,524,-944,25.1,25.3,3.9,24.9,26.0,4.1,5.73,1.87,3.5,28.7
2015-09-09 01:42:00,0.0,1.98279,0.00104,395.801,0.075,1.0539,0.0116,139.999,45.000,31711.76624,2.00400,400.990,34.446,45.068,45.000,0.00,0.10,-272.74,-272.80,-14,524,-944,25.1,25.8,4.1,24.9,26.2,4.2,5.73,1.90,3.5,28.8
2015-09-09 01:43:00,0.0,1.97929,0.00118,395.628,0.068,1.0600,0.0121,139.998,45.000,31713.46679,2.00077,400.850,34.444,45.068,45.000,0.00,0.10,-272.74,-272.80,-14,524,-944,25.1,25.8,4.2,24.9,26.6,4.4,5.73,1.94,3.5,28.8
2015-09-09 01:44:00,0.0,1.97667,0.00112,395.424,0.120,1.0562,0.0076,140.001,45.000,31714.29287,1.99803,400.627,34.439,45.068,45.000,0.00,0.10,-272.73,-272.80,-14,524,-944,25.1,25.7,4.1,24.9,26.5,4.3,5.73,1.96,3.5,28.8
2015-09-09 01:45:00,0.0,1.97733,0.00497,395.381,0.342,1.0626,0.0162,139.999,45.000,31712.48281,1.99845,400.599,34.440,45.068,45.000,0.00,0.10,-272.74,-272.80,-14,524,-944,25.1,26.0,4.2,24.9,26.5,4.3,5.73,1.98,3.5,28.8
2015-09-09 01:46:00,0.0,1.97539,0.00438,395.208,0.304,1.0589,0.0114,140.001,45.000,31714.70915,1.99727,400.440,34.441,45.068,45.000,0.00,0.10,-272.74,-272.80,-14,524,-944,25.1,25.7,4.1,24.9,26.7,4.4,5.73,1.98,3.5,28.7